When you browse on this site, cookies collect data to enhance your experience and personalize the content and advertising you see.
Visit our Privacy Policy to learn more. By continuing to use the site, you agree to this use of cookies and data.

Hourly Weather Huntsville

Today, 11 August, Tuesday

Time Temperature Precipitation Wind Pressure Humidity
00:00 +23°C° 1.3 mm 0 mps 744 mmHg 90%
01:00 +25°C° 1.7 mm 1 mps 744 mmHg 91%
02:00 +25°C° 1.7 mm 1 mps 743 mmHg 92%
03:00 +25°C° 1.7 mm 1 mps 743 mmHg 94%
04:00 +25°C° 0 mm 1 mps 743 mmHg 94%
05:00 +25°C° 0 mm 1 mps 743 mmHg 93%
06:00 +25°C° 0 mm 1 mps 743 mmHg 93%
07:00 +27°C° 0 mm 1 mps 743 mmHg 86%
08:00 +29°C° 0 mm 1 mps 744 mmHg 79%
09:00 +31°C° 0 mm 1 mps 744 mmHg 72%
10:00 +32°C° 0 mm 1 mps 744 mmHg 66%
11:00 +34°C° 0 mm 2 mps 744 mmHg 60%
12:00 +35°C° 0 mm 2 mps 744 mmHg 55%
13:00 +35°C° 0 mm 2 mps 743 mmHg 54%
14:00 +35°C° 0 mm 1 mps 743 mmHg 54%
15:00 +35°C° 0 mm 1 mps 742 mmHg 53%
16:00 +34°C° 0.1 mm 1 mps 742 mmHg 59%
17:00 +32°C° 0.1 mm 1 mps 742 mmHg 65%
18:00 +31°C° 0.1 mm 1 mps 742 mmHg 71%
19:00 +30°C° 0 mm 1 mps 742 mmHg 73%
20:00 +29°C° 0 mm 1 mps 742 mmHg 76%
21:00 +28°C° 0 mm 1 mps 742 mmHg 79%
22:00 +25°C° 0.2 mm 0 mps 743 mmHg 81%
23:00 +25°C° 0.2 mm 0 mps 743 mmHg 83%

Tomorrow, 12 August, Wednesday

Time Temperature Precipitation Wind Pressure Humidity
00:00 +24°C° 0.2 mm 0 mps 743 mmHg 85%
01:00 +24°C° 0.7 mm 0 mps 743 mmHg 86%
02:00 +24°C° 0.7 mm 0 mps 743 mmHg 87%
03:00 +23°C° 0.7 mm 0 mps 742 mmHg 89%
04:00 +24°C° 0.4 mm 0 mps 743 mmHg 89%
05:00 +24°C° 0.4 mm 0 mps 743 mmHg 89%
06:00 +26°C° 0.4 mm 1 mps 743 mmHg 89%
07:00 +28°C° 0.7 mm 1 mps 743 mmHg 85%
08:00 +29°C° 0.7 mm 1 mps 743 mmHg 80%
09:00 +31°C° 0.7 mm 1 mps 743 mmHg 75%
10:00 +32°C° 1.4 mm 1 mps 743 mmHg 68%
11:00 +33°C° 1.4 mm 1 mps 743 mmHg 62%
12:00 +34°C° 1.4 mm 1 mps 744 mmHg 55%
13:00 +34°C° 0.6 mm 1 mps 743 mmHg 57%
14:00 +33°C° 0.6 mm 1 mps 743 mmHg 58%
15:00 +31°C° 0.6 mm 0 mps 742 mmHg 60%
16:00 +32°C° 0.2 mm 1 mps 742 mmHg 65%
17:00 +31°C° 0.2 mm 1 mps 742 mmHg 71%
18:00 +30°C° 0.2 mm 1 mps 742 mmHg 76%
19:00 +29°C° 0 mm 1 mps 742 mmHg 79%
20:00 +27°C° 0 mm 1 mps 743 mmHg 82%
21:00 +26°C° 0 mm 1 mps 743 mmHg 85%
22:00 +26°C° 0 mm 1 mps 743 mmHg 85%
23:00 +26°C° 0 mm 1 mps 743 mmHg 86%

Day after tomorrow, 13 August, Thursday

Time Temperature Precipitation Wind Pressure Humidity
00:00 +26°C° 0 mm 1 mps 743 mmHg 86%
01:00 +25°C° 0.5 mm 1 mps 742 mmHg 87%
02:00 +25°C° 0.5 mm 1 mps 742 mmHg 88%
03:00 +25°C° 0.5 mm 1 mps 742 mmHg 88%
04:00 +25°C° 0.1 mm 1 mps 742 mmHg 88%
05:00 +25°C° 0.1 mm 1 mps 743 mmHg 88%
06:00 +26°C° 0.1 mm 1 mps 743 mmHg 88%
07:00 +27°C° 0.4 mm 1 mps 743 mmHg 84%
08:00 +29°C° 0.4 mm 1 mps 743 mmHg 79%
09:00 +30°C° 0.4 mm 1 mps 743 mmHg 75%
10:00 +31°C° 0.8 mm 2 mps 743 mmHg 69%
11:00 +34°C° 0.8 mm 2 mps 743 mmHg 63%
12:00 +35°C° 0.8 mm 2 mps 742 mmHg 57%
13:00 +35°C° 0.8 mm 2 mps 742 mmHg 59%
14:00 +34°C° 0.8 mm 2 mps 741 mmHg 60%
15:00 +34°C° 0.8 mm 2 mps 741 mmHg 62%
16:00 +32°C° 1.2 mm 2 mps 741 mmHg 67%
17:00 +31°C° 1.2 mm 1 mps 741 mmHg 72%
18:00 +28°C° 1.2 mm 0 mps 741 mmHg 77%
19:00 +27°C° 0.3 mm 0 mps 741 mmHg 79%
20:00 +25°C° 0.3 mm 0 mps 741 mmHg 81%
21:00 +24°C° 0.3 mm 0 mps 742 mmHg 83%
22:00 +26°C° 0.1 mm 1 mps 741 mmHg 85%
23:00 +26°C° 0.1 mm 1 mps 741 mmHg 86%

14 August, Friday

Time Temperature Precipitation Wind Pressure Humidity
00:00 +25°C° 0.1 mm 1 mps 741 mmHg 87%
01:00 +25°C° 0 mm 1 mps 741 mmHg 88%
02:00 +25°C° 0 mm 1 mps 741 mmHg 89%
03:00 +24°C° 0 mm 1 mps 741 mmHg 90%
04:00 +25°C° 0.5 mm 1 mps 741 mmHg 91%
05:00 +25°C° 0.5 mm 1 mps 741 mmHg 91%
06:00 +25°C° 0.5 mm 1 mps 741 mmHg 91%
07:00 +26°C° 0 mm 1 mps 742 mmHg 86%
08:00 +28°C° 0 mm 1 mps 742 mmHg 80%
09:00 +30°C° 0 mm 2 mps 742 mmHg 74%
10:00 +30°C° 1.6 mm 2 mps 742 mmHg 72%
11:00 +31°C° 1.6 mm 2 mps 742 mmHg 70%
12:00 +32°C° 1.6 mm 2 mps 741 mmHg 67%
13:00 +32°C° 0.3 mm 1 mps 741 mmHg 65%
14:00 +32°C° 0.3 mm 1 mps 741 mmHg 63%
15:00 +33°C° 0.3 mm 1 mps 740 mmHg 60%
16:00 +32°C° 0 mm 1 mps 740 mmHg 65%
17:00 +31°C° 0 mm 1 mps 740 mmHg 70%
18:00 +30°C° 0 mm 1 mps 740 mmHg 75%
19:00 +29°C° 0 mm 1 mps 741 mmHg 78%
20:00 +28°C° 0 mm 1 mps 741 mmHg 81%
21:00 +26°C° 0 mm 1 mps 741 mmHg 85%
22:00 +26°C° 0 mm 1 mps 741 mmHg 86%
23:00 +25°C° 0 mm 1 mps 741 mmHg 88%

15 August, Saturday

Time Temperature Precipitation Wind Pressure Humidity
00:00 +25°C° 0 mm 1 mps 741 mmHg 90%
01:00 +25°C° 0 mm 1 mps 741 mmHg 90%
02:00 +25°C° 0 mm 1 mps 741 mmHg 91%
03:00 +24°C° 0 mm 1 mps 741 mmHg 91%
04:00 +25°C° 0 mm 1 mps 741 mmHg 91%
05:00 +25°C° 0 mm 1 mps 742 mmHg 91%
06:00 +25°C° 0 mm 1 mps 742 mmHg 91%
07:00 +27°C° 0 mm 1 mps 742 mmHg 85%
08:00 +28°C° 0 mm 1 mps 743 mmHg 78%
09:00 +30°C° 0 mm 2 mps 743 mmHg 72%
10:00 +31°C° 0 mm 2 mps 743 mmHg 68%
11:00 +32°C° 0 mm 2 mps 742 mmHg 64%
12:00 +34°C° 0 mm 2 mps 742 mmHg 59%
13:00 +34°C° 0 mm 3 mps 742 mmHg 59%
14:00 +34°C° 0 mm 3 mps 741 mmHg 59%
15:00 +34°C° 0 mm 3 mps 741 mmHg 60%
16:00 +32°C° 0 mm 2 mps 741 mmHg 65%
17:00 +31°C° 0 mm 2 mps 741 mmHg 70%
18:00 +30°C° 0 mm 2 mps 741 mmHg 75%
19:00 +28°C° 0 mm 1 mps 741 mmHg 77%
20:00 +27°C° 0 mm 1 mps 742 mmHg 80%
21:00 +26°C° 0 mm 1 mps 742 mmHg 83%
22:00 +26°C° 0 mm 1 mps 742 mmHg 84%
23:00 +25°C° 0 mm 1 mps 742 mmHg 85%

16 August, Sunday

Time Temperature Precipitation Wind Pressure Humidity
00:00 +25°C° 0 mm 1 mps 742 mmHg 86%
01:00 +24°C° 0 mm 1 mps 742 mmHg 88%
02:00 +24°C° 0 mm 1 mps 742 mmHg 89%
03:00 +24°C° 0 mm 1 mps 742 mmHg 90%
04:00 +24°C° 0 mm 1 mps 742 mmHg 90%
05:00 +24°C° 0 mm 1 mps 742 mmHg 90%
06:00 +24°C° 0 mm 1 mps 743 mmHg 90%
07:00 +26°C° 0 mm 1 mps 743 mmHg 83%
08:00 +28°C° 0 mm 2 mps 743 mmHg 76%
09:00 +30°C° 0 mm 2 mps 743 mmHg 69%
10:00 +31°C° 0 mm 2 mps 743 mmHg 64%
11:00 +34°C° 0 mm 2 mps 742 mmHg 60%
12:00 +35°C° 0 mm 3 mps 742 mmHg 56%
13:00 +35°C° 0 mm 3 mps 742 mmHg 56%
14:00 +35°C° 0 mm 3 mps 741 mmHg 57%
15:00 +35°C° 0 mm 3 mps 741 mmHg 58%
16:00 +34°C° 0 mm 3 mps 741 mmHg 64%
17:00 +32°C° 0 mm 2 mps 741 mmHg 70%
18:00 +30°C° 0 mm 2 mps 741 mmHg 76%
19:00 +29°C° 0 mm 2 mps 741 mmHg 79%
20:00 +28°C° 0 mm 1 mps 742 mmHg 82%
21:00 +27°C° 0 mm 1 mps 742 mmHg 85%
22:00 +27°C° 0 mm 1 mps 742 mmHg 87%
23:00 +26°C° 0 mm 1 mps 742 mmHg 88%
Show more